Location: Morlupo
(42.1333°N, 12.5000°E)
Time: 15:54:33
(UTC+00:00)

Sich 1 Rocket - Pass Details

Date: 18 September 2020
Orbit: 616 x 652 km, 82.5° (Epoch: 25 October)

Event Time Altitude Azimuth Distance (km) Brightness Sun altitude
Rises 17:41:30 0° 161° (SSE) 2,909 6.7 -6.0°
Reaches altitude 10° 17:43:54 10° 151° (SSE) 2,012 5.8 -6.4°
Maximum altitude 17:47:49 31° 90° (E) 1,134 4.4 -7.1°
Drops below altitude 10° 17:51:47 10° 29° (NNE) 2,046 6.0 -7.8°
Sets 17:54:14 0° 19° (NNE) 2,967 7.0 -8.3°
